STARLINK-36131 (67032 NORAD) Tracking and Keplerian Element Data

This shows tracking and keplerian element data for the satellite.

Feedback or suggestion? Click here.




ElementValue
Catalog67032
NameSTARLINK-36131
Epoch Orbit132
Epoch Day354.25003472
Epoch Year2025
RAAN136.2826
Inclination42.9998
Eccentricity0.0001595
Argument of Perigee260.6042
Mean Anonmoly329.8755
Mean Motion15.88632953
Decay Rate-0.01330318
L11 67032U 25294C 25354.25003472 -.01330318 00000+0 -52053-2 0 9999
L22 67032 42.9998 136.2826 0001595 260.6042 329.8755 15.88632953 1324



Live tracking and technical data element details for STARLINK-36131 (NORAD 67032). STARLINK-36131 can be tracked NOW for your location showing map with azimuth and elevation plus other details from your city location.







IsCatalogInMostPopularTable: catalog: 67032, numindb: 84
Update: records affected: 1



GetName: 67032 STARLINK-36131

Hit Count: updated at: Thu, 16 Apr 2026 05:35:24 GMT